Location: Mentone
(34.5413°N, 85.5351°W)
Time: 19:27:11
(UTC-05:00)

Okean O Rocket - Visible Passes

Search period start: 23 July 2014 00:00
Search period end: 02 August 2014 00:00
Orbit: 626 x 646 km, 98.0° (Epoch: 23 July)

Date Brightness Start Highest point End Pass type
(mag) Time Alt. Az. Time Alt. Az. Time Alt. Az.
23 Jul 2.8 03:13:26 10° NNE 03:17:31 35° E 03:18:37 30° SE visible
23 Jul 3.3 04:50:42 10° NNW 04:53:38 18° WNW 04:56:07 12° WSW visible
24 Jul 1.8 03:35:28 10° NNE 03:39:54 66° E 03:41:09 44° SSE visible
25 Jul 1.6 03:57:48 10° N 04:02:13 67° WNW 04:03:41 40° SW visible
26 Jul 3.9 02:45:10 10° NE 02:47:57 16° E 02:48:42 16° ESE visible
26 Jul 2.4 04:20:24 10° N 04:24:27 36° WNW 04:26:12 26° WSW visible
27 Jul 3.1 03:06:33 10° NE 03:10:25 29° E 03:11:14 27° ESE visible
27 Jul 3.1 04:43:20 10° NNW 04:46:38 21° WNW 04:48:44 15° WSW visible
28 Jul 2.1 03:28:29 10° NNE 03:32:49 53° E 03:33:46 44° SE visible
28 Jul 3.7 05:07:06 10° NW 05:08:44 12° WNW 05:10:21 10° W visible
29 Jul 1.5 03:50:43 10° N 03:55:10 82° WNW 03:56:17 50° SSW visible
30 Jul 4.1 02:38:41 10° ENE 02:40:49 13° E 02:41:19 13° E visible
30 Jul 2.1 04:13:14 10° N 04:17:25 44° WNW 04:18:49 33° WSW visible
31 Jul 3.4 02:59:43 10° NE 03:03:19 24° E 03:03:50 23° ESE visible
31 Jul 2.9 04:36:02 10° NNW 04:39:37 25° WNW 04:41:20 19° WSW visible
01 Aug 2.4 03:21:31 10° NNE 03:25:44 44° E 03:26:21 41° ESE visible
01 Aug 3.5 04:59:25 10° NW 05:01:44 14° WNW 05:03:52 11° W visible
